GFSCGP_925_thetae_024.txt.gz
Theta_e
312 314 314 315 314 314 313 313 313 313 313 311 312 313 312 312 312 312 313 313 314 313 313 311 310 309 309 309 308 308 308 307 309 311 312 313 312 312 311 311 309 307 306 305
311 313 314 313 311 311 312 313 314 314 313 310 312 312 312 312 313 313 313 313 313 313 313 311 309 307 308 308 307 306 306 306 306 309 310 311 310 310 309 309 307 306 304 303
314 315 311 311 312 312 313 313 313 314 312 311 310 313 313 314 313 312 312 312 311 311 310 310 308 307 305 305 304 304 304 304 304 306 307 307 304 306 306 306 305 303 302 301
312 311 310 310 311 312 314 314 312 311 312 313 310 315 315 315 314 313 313 311 311 310 309 308 306 304 302 301 301 301 302 302 302 303 304 305 304 304 304 303 303 302 300 300
314 311 310 312 312 311 313 309 309 310 312 312 312 313 318 311 314 314 313 310 308 307 306 304 303 301 300 299 299 300 300 300 300 301 302 302 303 304 303 302 302 300 299 299
310 307 308 310 308 308 308 310 310 309 311 315 316 314 316 315 314 313 312 307 306 305 303 302 301 300 300 299 298 297 298 298 298 299 300 300 301 302 302 300 300 299 298 297
316 314 308 306 310 308 309 310 317 322 320 321 310 316 314 314 311 310 307 306 305 304 302 301 300 299 298 298 298 297 297 296 296 297 298 298 299 300 300 300 299 299 298 297
319 321 309 307 311 314 310 315 325 328 327 325 319 323 320 314 310 307 306 305 304 303 302 301 300 299 297 297 296 297 295 295 295 295 295 295 296 297 298 298 298 298 298 297
320 320 310 305 306 311 315 313 313 318 320 321 320 319 316 311 311 308 307 306 303 301 300 299 298 298 297 296 295 295 295 294 294 293 294 294 294 295 295 296 296 297 297 297
317 322 318 314 306 307 310 309 314 317 322 324 320 317 317 314 312 309 307 304 301 299 298 298 297 297 295 295 294 294 293 292 292 292 292 293 293 293 293 294 294 294 295 295
315 317 316 316 314 315 308 312 314 315 319 321 320 316 313 313 309 308 304 300 298 297 296 296 296 296 295 293 293 292 292 291 291 290 290 291 292 292 292 292 292 292 292 293
315 317 319 318 315 312 312 316 316 318 317 314 314 315 310 308 305 301 298 296 296 294 293 293 294 295 295 291 290 291 290 290 289 289 289 290 290 290 291 291 291 291 291 291
314 316 318 319 315 312 313 314 313 314 314 317 319 320 309 303 300 298 296 295 294 294 292 291 292 292 295 291 289 289 289 289 288 288 288 288 288 288 288 288 289 290 290 290
312 314 315 317 316 314 315 315 313 313 314 314 313 311 309 308 305 297 294 294 293 291 290 290 291 291 292 290 287 287 287 286 286 286 287 287 287 287 286 286 287 288 289 289
309 311 311 312 312 312 310 309 307 307 307 308 307 307 306 304 296 293 291 292 294 290 289 289 289 290 290 289 286 286 285 285 285 285 285 286 286 285 284 285 285 285 286 288
303 306 306 304 304 304 305 304 303 302 301 300 301 301 301 294 292 292 291 290 292 290 289 289 289 289 289 289 286 285 285 284 284 283 284 284 284 283 281 283 284 284 284 285
299 302 303 304 302 301 300 300 300 300 299 299 298 297 294 292 291 291 290 290 291 290 289 289 289 288 288 289 287 285 284 284 284 282 282 282 282 281 280 282 282 282 283 283
297 299 300 301 297 300 299 296 296 296 297 297 295 293 292 291 290 291 291 291 290 290 289 289 289 288 287 288 285 285 284 283 283 281 281 281 280 280 279 281 280 280 281 282
295 296 297 295 297 296 294 294 294 295 295 295 293 291 290 290 291 290 290 290 290 290 289 289 288 287 287 285 284 283 283 282 282 281 281 280 279 278 277 278 278 278 279 281
291 294 295 287 294 293 292 291 290 290 293 293 291 290 290 290 290 290 290 290 289 289 289 288 287 286 284 284 282 282 281 281 281 280 280 279 277 276 276 276 276 276 277 278
291 291 294 295 294 293 293 290 290 292 293 293 292 291 289 289 290 290 290 289 289 288 288 287 285 284 283 282 281 280 280 280 280 279 278 277 276 275 274 274 274 274 275 276
290 291 291 287 291 292 290 289 291 292 291 291 290 290 290 290 289 289 289 289 289 288 286 284 283 283 281 280 279 279 279 278 278 277 276 275 274 273 272 272 272 272 273 275
290 291 290 289 291 291 289 291 291 291 291 291 291 291 289 289 288 288 288 287 286 284 283 281 280 279 278 277 277 277 276 276 275 274 273 272 271 271 270 270 271 271 272 273
290 290 290 290 291 291 291 291 291 291 291 291 290 289 288 287 286 285 283 283 281 280 278 277 276 275 275 274 273 272 272 271 270 270 269 269 269 269 268 268 269 270 271 273
291 289 290 290 290 290 290 290 291 290 290 288 284 284 284 282 282 280 279 278 277 275 274 273 272 271 271 269 268 267 266 266 266 266 266 266 266 266 266 266 267 268 269 270
291 290 291 291 290 290 290 290 290 288 287 282 281 281 279 277 277 276 275 274 273 272 270 269 268 267 266 265 264 264 263 263 262 263 263 263 263 264 264 264 265 266 267 269

GFSCGP_925_thetae_027.txt.gz
Theta_e
315 315 316 317 318 317 316 316 317 316 316 316 317 316 316 315 315 315 315 315 316 315 314 311 310 310 310 310 310 310 311 311 311 314 316 318 319 319 318 317 316 315 312 310
315 316 316 316 316 314 315 316 316 316 316 317 316 315 314 314 315 315 315 315 315 313 312 310 307 306 305 305 306 306 307 309 309 311 313 314 316 316 316 315 315 314 311 309
317 318 316 314 315 315 316 316 316 316 316 315 314 315 316 316 317 316 315 314 311 311 309 307 305 304 303 303 304 304 305 306 306 307 309 311 312 309 312 312 312 311 310 308
316 313 312 313 314 314 315 315 314 314 314 315 313 315 316 317 318 314 312 310 310 308 307 305 305 304 303 302 302 302 302 303 303 304 306 308 309 308 308 308 309 308 307 307
315 314 313 313 313 313 314 312 312 312 312 314 315 316 318 317 317 314 311 309 308 306 305 304 303 303 302 301 301 300 300 300 301 302 303 304 305 305 306 306 305 305 305 304
315 310 311 313 312 312 311 311 313 314 314 319 319 319 319 318 315 310 309 308 307 306 305 303 302 301 300 300 299 299 299 298 298 299 300 301 302 302 303 304 303 303 302 302
318 315 315 310 313 312 310 313 321 326 322 324 316 322 318 317 313 311 310 308 306 305 304 303 302 301 299 299 298 298 297 296 297 297 297 298 298 299 300 301 301 302 302 301
318 317 314 309 312 316 314 318 327 331 328 326 321 323 321 317 310 309 308 307 305 304 303 302 301 299 298 298 297 297 296 295 295 295 295 296 296 297 297 298 298 299 300 300
319 318 313 308 309 314 319 322 320 323 323 324 319 317 318 319 313 310 309 306 304 302 301 300 299 299 297 296 296 295 294 294 293 293 294 294 294 294 294 295 296 297 297 297
318 322 319 317 310 312 312 311 316 316 320 321 318 320 319 314 313 311 307 304 301 300 299 299 298 298 296 294 294 293 293 291 291 291 292 292 292 292 293 293 293 293 294 294
317 318 317 315 315 314 311 312 312 315 320 321 322 320 316 314 312 310 304 301 300 298 296 296 296 297 295 292 292 291 291 290 289 289 290 290 290 290 290 290 291 291 292 292
315 316 318 314 312 312 315 316 316 318 319 319 320 320 310 309 305 303 301 300 298 297 295 293 293 293 295 292 290 289 289 289 288 288 288 289 289 288 288 287 287 288 289 290
314 315 316 315 309 313 316 315 315 316 315 317 319 317 309 304 303 301 300 298 296 295 292 291 291 291 291 291 289 288 287 287 287 286 286 287 287 287 286 285 286 285 285 286
311 312 314 313 308 309 312 312 312 314 316 315 316 314 310 309 309 304 298 297 296 293 291 291 290 290 290 290 289 288 287 286 286 285 285 286 286 286 285 283 284 284 283 284
308 309 308 308 308 308 309 309 309 310 310 311 311 310 307 306 304 299 294 293 294 294 291 290 290 290 289 289 289 288 287 287 286 285 285 285 284 284 283 282 282 283 283 283
304 304 304 304 303 303 303 303 304 305 305 305 304 303 303 299 295 296 295 292 291 291 292 290 290 289 289 289 289 288 287 286 285 285 285 284 283 283 282 282 281 283 282 282
301 301 302 302 300 300 301 301 301 301 302 301 301 301 296 296 293 292 292 291 291 291 291 291 290 289 289 289 288 289 287 286 285 284 284 283 283 282 282 281 280 281 281 281
298 300 300 300 299 299 298 297 296 295 296 297 299 295 293 291 291 291 292 292 291 290 290 291 290 290 289 288 288 287 285 285 284 284 283 283 282 282 281 280 280 279 279 280
295 296 298 298 298 297 297 295 294 294 295 298 298 292 291 291 290 291 292 291 291 290 290 290 290 289 288 287 286 285 284 283 283 283 282 283 282 281 280 279 278 278 278 278
292 294 297 296 295 294 293 293 292 292 293 297 294 291 292 291 290 291 291 291 291 290 290 290 290 288 287 285 284 283 282 282 281 281 281 280 280 280 279 278 277 277 276 276
293 294 296 296 296 295 295 293 291 293 294 296 293 292 291 291 291 291 291 290 290 290 290 289 287 286 284 283 281 280 280 280 279 278 278 278 278 278 277 277 276 275 274 274
291 292 293 293 293 293 292 291 292 293 293 294 292 292 292 291 291 290 290 290 290 288 287 284 283 282 281 279 278 277 277 276 275 274 273 273 273 273 273 273 273 272 272 272
291 291 292 293 292 292 291 292 293 293 293 292 292 292 291 291 290 289 289 288 287 284 282 280 278 277 276 275 274 273 272 271 270 269 268 267 268 268 268 269 270 270 270 271
291 292 292 292 291 292 291 292 291 292 292 292 292 291 290 289 289 286 285 284 282 280 278 276 275 274 273 272 271 269 268 267 266 265 264 264 264 265 265 265 266 267 268 268
293 292 292 292 291 291 291 291 291 291 291 291 288 287 287 285 284 283 281 280 278 276 275 273 272 271 270 269 268 266 265 264 264 263 263 263 263 264 264 264 264 265 265 266
292 292 291 292 291 291 291 291 291 291 291 290 287 284 282 280 280 278 277 276 274 273 271 270 269 268 267 266 265 265 264 263 262 262 263 263 263 263 263 264 264 264 265 266

GFSCGP_925_thetae_030.txt.gz
Theta_e
314 314 314 315 315 315 315 314 315 315 315 314 314 315 314 313 313 313 312 311 311 308 306 305 304 304 304 304 305 307 308 310 312 316 317 320 321 321 322 321 320 319 318 316
314 315 315 315 315 315 314 314 314 314 315 314 313 314 313 313 313 312 311 309 308 306 305 304 303 302 302 302 303 304 306 307 309 310 314 315 317 318 319 319 318 317 316 314
316 318 317 316 315 315 314 315 315 314 313 313 312 312 313 313 313 310 309 307 306 305 304 304 303 302 301 301 300 301 302 303 305 307 309 311 313 312 312 313 314 315 315 313
318 315 314 313 313 313 314 313 313 313 312 312 310 311 313 313 312 309 307 306 304 303 303 302 301 301 300 300 300 299 299 301 302 304 306 307 308 307 307 308 308 310 312 312
316 312 312 314 314 314 315 311 312 311 311 312 312 313 314 314 310 309 307 305 304 302 302 301 300 300 299 298 298 297 297 298 298 300 302 302 303 303 304 304 305 304 306 307
312 309 311 313 314 311 311 310 310 310 311 316 316 316 317 313 310 308 307 306 304 303 301 301 300 299 298 298 297 296 296 296 296 297 297 298 298 299 300 301 302 302 302 302
317 315 311 311 313 310 310 311 317 320 316 319 317 319 318 317 309 308 307 305 303 301 300 299 298 298 297 296 296 295 294 293 294 294 295 295 296 296 297 297 298 299 300 301
319 317 314 309 313 315 312 318 320 322 322 320 315 317 319 311 308 307 305 303 302 300 299 299 298 297 297 296 294 294 292 292 292 292 293 293 293 294 294 294 295 296 296 297
315 317 309 309 309 311 318 320 318 322 315 319 316 315 313 310 309 307 305 302 300 298 298 298 298 296 294 294 293 293 291 290 290 290 291 291 290 290 291 291 292 292 293 293
318 320 318 314 311 312 314 312 319 317 316 309 313 313 313 313 311 307 303 300 298 297 296 296 297 295 293 292 292 291 290 289 289 289 289 289 288 287 287 287 287 287 288 291
317 318 316 315 313 315 310 311 311 313 314 315 315 312 311 311 311 306 302 300 298 296 294 293 293 295 293 290 289 289 289 288 287 287 288 288 287 286 285 285 285 285 285 285
315 316 315 315 311 310 310 312 313 318 315 314 315 315 309 305 303 302 301 300 297 295 292 291 292 291 292 290 288 288 287 287 287 286 286 286 286 285 285 284 284 284 285 284
313 313 308 307 307 312 314 313 313 313 312 315 316 314 310 303 302 302 301 298 296 295 291 290 290 290 290 290 289 288 287 287 286 286 285 285 285 285 285 284 283 283 283 284
309 311 306 307 306 307 306 307 307 308 311 309 308 307 305 306 305 303 299 297 296 294 291 290 289 289 289 289 289 289 288 287 286 286 285 285 284 284 283 283 283 282 282 282
307 303 305 305 306 305 304 304 305 305 304 305 304 304 304 305 299 295 292 292 294 294 291 289 289 289 289 289 289 289 289 287 286 286 285 285 284 284 284 284 283 282 282 281
305 298 300 295 301 301 302 301 301 301 301 301 301 301 300 295 295 295 295 292 291 290 290 290 289 289 289 289 289 288 289 288 287 286 285 284 284 284 283 283 282 282 281 281
300 297 291 292 298 296 293 297 298 299 298 299 299 298 294 294 294 292 291 291 291 291 290 289 289 289 289 289 288 288 288 287 286 285 285 284 283 283 282 282 282 281 280 280
298 295 294 290 290 291 294 296 294 294 294 293 292 288 289 290 290 290 290 290 290 290 289 288 289 289 289 288 287 286 286 285 284 283 283 283 283 282 282 282 281 280 280 279
295 296 294 289 289 293 294 293 292 291 290 292 292 291 291 290 289 288 290 289 290 289 289 289 289 289 288 286 285 284 283 282 282 281 281 281 280 280 280 279 279 279 279 278
291 293 293 285 288 285 292 291 291 291 290 288 288 288 290 290 286 287 290 289 289 289 289 288 287 286 285 283 282 280 280 279 279 278 277 277 276 276 276 276 276 277 277 277
286 286 290 292 292 290 292 291 290 289 290 289 288 289 289 288 288 288 288 288 289 288 287 285 284 283 282 280 278 277 276 276 275 274 272 271 271 270 270 270 270 271 271 272
288 286 285 284 284 289 290 290 291 291 293 291 291 290 289 289 288 288 287 287 287 285 283 282 280 278 277 276 275 273 273 272 270 269 268 267 266 265 266 266 266 266 267 268
288 289 286 288 289 291 290 290 290 291 289 290 290 289 288 288 288 287 287 285 283 282 280 279 277 275 274 273 272 271 270 268 267 266 265 264 264 264 264 264 264 264 264 265
290 289 289 289 290 290 290 290 290 289 289 289 288 288 288 288 287 286 284 283 281 280 278 275 274 272 272 271 270 268 267 266 265 264 263 263 263 263 263 263 264 264 264 264
290 290 289 290 290 290 290 290 290 289 289 289 288 287 287 286 284 283 281 279 278 276 274 272 271 270 269 268 267 266 265 265 263 263 263 263 263 263 263 263 263 264 264 265
291 291 290 290 290 290 290 289 289 289 288 287 287 284 282 282 282 279 277 276 274 272 271 269 269 268 267 266 265 265 264 264 263 262 263 262 262 262 262 262 263 264 265 266

GFSCGP_925_thetae_033.txt.gz
Theta_e
311 310 311 311 310 311 312 313 313 312 312 311 311 311 311 310 310 310 306 304 304 303 303 302 300 300 300 301 302 303 305 308 314 318 320 321 322 324 324 324 323 324 324 322
312 312 311 311 313 313 313 313 312 311 312 312 311 311 310 311 308 306 305 304 303 303 302 301 299 299 298 298 299 301 303 304 307 309 312 315 318 319 320 321 321 320 319 318
312 313 313 315 314 314 314 313 313 313 311 309 309 308 309 307 306 306 304 303 303 302 301 299 299 298 297 296 297 298 299 301 303 305 308 309 311 311 310 312 317 317 316 316
315 314 314 314 313 312 313 311 311 312 310 310 308 310 309 308 307 305 303 301 300 300 299 299 298 297 296 296 296 296 297 298 299 301 302 302 301 301 302 304 307 310 311 313
314 311 311 312 311 310 312 310 310 310 310 310 310 310 309 308 309 306 303 302 300 299 299 298 297 296 296 295 295 295 296 296 296 297 297 298 298 298 299 300 302 302 304 306
310 309 310 311 311 311 309 310 309 308 308 312 311 311 313 309 308 306 304 302 301 299 298 297 297 296 295 295 293 293 293 293 294 294 295 295 295 296 297 297 297 298 299 301
314 312 310 310 312 309 309 309 314 315 312 315 315 316 314 312 306 306 303 301 299 298 297 295 295 295 294 293 292 291 290 291 292 292 291 293 293 293 293 293 294 295 295 296
318 318 311 309 312 313 309 311 315 317 319 316 313 317 316 306 305 303 301 300 299 297 297 296 295 294 294 293 292 290 289 289 289 290 289 289 288 288 288 288 288 291 292 292
314 315 309 309 308 311 315 316 315 316 313 311 314 313 308 306 304 302 300 298 297 297 297 296 294 293 292 292 291 290 288 287 287 288 288 287 287 286 286 286 286 285 285 286
316 314 315 310 311 310 314 313 315 315 313 312 312 311 310 309 306 303 299 298 296 295 295 295 294 292 291 291 290 289 288 287 286 286 286 286 286 286 285 284 284 284 285 284
315 315 313 313 313 314 308 311 313 314 314 315 310 309 310 310 306 303 299 298 296 295 294 292 293 291 290 289 288 288 287 287 286 286 285 285 285 285 285 284 284 284 284 284
314 313 309 313 311 309 309 311 310 315 313 311 313 313 307 306 303 300 300 298 295 293 290 290 291 292 291 289 288 287 287 287 286 286 285 285 285 284 284 284 284 284 284 284
312 310 302 304 303 309 312 312 312 312 311 310 310 309 303 301 302 300 299 297 295 292 290 289 289 289 289 289 289 288 287 287 286 286 286 285 285 285 284 284 284 284 283 283
309 310 303 305 302 307 306 306 305 308 307 303 306 305 303 301 302 300 300 296 293 289 288 287 287 288 289 289 288 289 288 288 287 286 286 285 285 284 284 283 283 282 282 282
306 303 306 305 304 302 302 303 303 302 303 302 302 301 300 300 297 295 292 293 293 292 288 287 287 287 288 288 288 288 288 288 288 288 287 286 285 284 283 283 282 282 281 281
303 297 298 293 300 300 300 300 298 298 298 299 299 301 299 295 294 293 291 290 289 289 289 289 287 288 288 289 289 289 288 288 288 286 285 285 284 283 282 282 281 281 281 280
300 296 289 292 297 293 291 295 296 297 297 297 297 296 291 292 293 290 290 290 290 290 290 289 288 288 288 288 288 287 287 286 285 284 284 282 282 281 281 281 281 280 280 279
297 293 288 287 285 290 292 293 293 294 294 291 289 286 287 289 289 289 289 289 289 289 288 287 288 288 288 287 286 285 284 284 282 281 280 279 279 279 278 278 277 277 277 277
296 296 287 288 282 288 293 292 291 290 289 287 287 289 290 289 289 288 289 289 289 288 288 288 288 287 286 285 284 283 281 279 278 277 277 277 275 274 273 272 272 272 272 272
292 295 293 276 288 287 289 290 290 289 289 285 283 287 288 288 285 286 287 288 288 289 288 287 285 284 283 281 280 278 277 276 275 275 274 272 270 270 269 268 267 267 268 268
282 281 293 293 289 287 289 288 289 287 289 283 286 288 288 287 286 287 287 287 288 288 286 284 283 281 279 278 276 274 273 273 272 271 269 268 267 266 265 265 265 265 265 265
289 285 283 278 280 288 288 290 290 289 292 290 290 288 288 288 287 287 287 286 286 284 283 281 279 277 276 275 273 271 271 270 269 268 266 266 265 264 264 263 263 263 263 263
288 288 285 288 287 289 287 289 289 289 287 289 289 288 288 288 287 286 286 285 283 283 281 278 277 275 273 272 270 269 268 267 266 265 265 264 264 264 263 263 262 263 263 263
288 288 288 287 289 289 289 288 288 288 288 288 288 287 286 287 287 286 285 284 282 279 277 276 274 272 271 270 268 267 267 266 264 264 264 263 263 263 263 263 262 263 263 263
289 288 288 289 289 289 288 288 288 288 287 287 286 286 286 285 285 285 283 279 279 277 274 273 271 270 269 267 266 266 266 265 264 263 263 263 263 263 262 262 262 263 263 264
291 291 290 290 290 289 290 289 288 288 287 287 287 286 285 284 283 280 278 277 275 273 272 270 269 267 266 265 266 266 265 264 263 263 263 262 263 263 262 262 262 263 264 266

GFSCGP_925_thetae_036.txt.gz
Theta_e
311 309 309 308 308 309 311 312 311 310 310 311 311 310 310 308 308 305 302 302 302 301 299 298 297 297 298 300 301 303 306 308 314 317 318 320 322 323 324 323 322 324 325 326
311 311 310 310 310 311 311 312 311 310 311 311 310 310 307 305 304 303 302 302 301 299 298 297 296 295 295 296 297 300 301 304 306 309 309 310 312 308 309 316 316 317 320 322
311 313 311 313 314 314 313 313 313 314 310 308 308 308 308 306 304 303 302 300 299 298 298 296 296 294 294 295 295 296 297 299 302 304 307 308 308 308 308 307 309 310 312 314
312 311 313 313 313 312 314 310 311 311 310 311 307 310 308 307 305 303 301 299 298 297 296 296 295 294 293 293 294 295 296 297 297 299 301 300 298 297 297 299 301 304 306 308
315 312 312 313 313 309 311 309 310 310 309 309 308 308 308 306 307 303 301 299 298 297 296 295 294 294 292 292 293 293 293 294 294 295 296 296 296 296 297 298 299 300 300 301
310 308 309 310 310 310 308 309 308 306 306 310 308 310 311 309 307 303 301 300 298 296 295 295 294 293 292 291 290 291 292 291 290 291 292 292 292 292 292 293 294 295 295 296
313 311 310 309 311 308 308 309 314 314 311 314 312 311 311 307 305 304 301 299 297 295 294 293 293 292 291 290 289 289 289 289 288 288 288 287 287 287 286 286 286 287 288 289
317 318 310 309 311 312 309 309 311 308 316 314 312 317 314 304 302 301 300 298 297 296 294 292 292 292 291 290 288 287 287 287 287 287 286 286 286 285 285 285 285 285 284 285
315 315 308 308 307 310 313 314 312 314 310 315 313 310 308 304 302 300 299 297 296 295 295 293 291 291 291 290 289 287 287 286 286 286 286 285 285 285 284 284 284 284 284 284
313 312 313 310 311 308 313 310 314 312 308 313 311 311 310 307 304 301 298 297 295 295 295 294 291 290 290 289 288 287 287 286 286 286 286 285 285 285 285 285 285 285 285 285
313 312 312 311 313 313 309 313 313 312 312 308 307 310 307 307 305 302 298 296 294 294 293 293 291 290 289 288 288 287 287 287 286 286 286 286 285 285 285 285 285 285 285 284
313 311 308 312 310 308 309 309 310 315 311 309 311 311 307 306 302 300 298 297 294 293 290 289 290 289 288 288 288 287 287 287 286 286 286 286 286 286 286 285 285 285 284 284
312 308 302 305 304 308 310 311 310 309 308 305 313 309 303 303 301 299 299 297 295 291 288 288 289 290 290 288 288 287 287 286 286 286 286 286 286 285 285 284 284 283 283 283
309 306 305 307 302 306 307 306 305 305 305 304 308 306 304 302 301 300 299 297 293 289 288 287 286 288 288 288 288 288 288 288 287 287 287 286 285 284 284 283 282 281 281 281
306 304 306 306 304 304 303 305 304 304 304 304 303 301 301 299 297 295 293 294 292 289 287 285 285 286 288 288 288 288 288 288 287 287 286 285 284 283 282 281 280 280 280 280
302 299 299 294 300 301 302 300 300 301 301 300 300 300 298 295 294 292 290 293 292 291 288 287 286 287 287 288 288 287 286 287 286 285 284 284 284 283 281 279 279 278 277 277
302 297 294 297 296 293 293 294 296 295 295 295 294 295 290 293 293 292 289 288 288 288 287 286 286 287 288 288 287 287 286 285 285 285 284 282 280 278 278 277 276 274 274 273
299 295 291 289 287 290 293 291 292 293 294 293 290 286 288 290 290 288 287 288 287 287 287 286 287 288 287 286 286 285 284 283 282 280 278 277 276 275 273 272 271 271 270 270
296 296 288 290 286 289 293 291 291 291 290 287 287 286 289 288 288 288 287 286 286 287 288 288 288 287 286 284 283 283 282 280 278 276 275 274 272 271 270 269 268 268 267 267
292 295 293 279 285 288 290 290 289 289 289 283 282 285 287 287 285 287 286 287 287 288 288 287 287 285 284 282 281 280 278 276 275 273 272 271 270 268 267 267 266 265 265 265
283 285 297 294 287 285 288 288 289 288 289 281 283 287 287 287 288 287 286 286 287 288 287 286 285 283 281 279 278 276 274 272 272 271 270 269 268 267 267 265 265 264 263 263
289 287 286 284 286 288 286 288 290 289 289 288 288 289 288 288 287 286 286 286 286 285 285 284 282 279 277 276 275 273 272 271 270 268 268 268 267 267 266 265 264 263 262 262
288 288 285 288 287 289 287 290 290 289 288 290 289 288 287 287 287 286 286 285 285 285 282 281 279 277 274 273 272 270 270 269 267 267 267 267 267 266 265 264 263 262 262 262
288 287 288 286 288 288 289 289 288 288 288 288 288 288 286 287 287 287 285 284 284 282 279 277 275 273 272 271 270 268 268 267 266 265 266 266 265 264 264 263 263 262 262 262
289 287 287 288 289 288 287 287 288 287 287 287 286 286 286 285 286 285 285 282 282 279 276 275 273 272 270 269 268 268 266 265 265 264 265 264 264 263 263 263 263 263 263 264
291 290 290 289 289 289 289 289 287 287 287 286 286 286 285 284 285 283 281 281 278 275 273 272 271 269 269 268 267 267 265 264 264 263 263 263 263 263 262 262 262 264 265 266

GFSCGP_925_thetae_042.txt.gz
Theta_e
308 306 308 308 306 308 308 309 310 309 309 311 310 308 305 302 301 300 298 297 296 295 294 293 293 294 296 298 301 303 307 308 314 316 313 311 308 307 311 313 314 314 314 316
308 307 307 306 306 308 309 310 310 309 309 310 309 308 304 302 301 300 298 297 296 295 293 292 292 293 294 295 296 301 303 306 307 308 306 304 302 301 301 303 305 306 307 309
310 312 308 309 309 309 309 309 310 312 309 307 306 307 306 302 300 299 298 297 296 294 293 291 291 291 293 294 295 296 298 301 303 304 305 304 302 301 300 298 298 297 299 300
309 309 311 309 310 309 312 309 310 312 310 313 306 312 307 303 301 300 298 296 295 293 292 291 290 290 290 291 293 294 296 297 298 299 300 298 294 290 289 289 290 290 291 292
315 311 311 312 312 310 314 308 308 308 308 308 309 309 307 303 303 301 298 296 294 293 291 290 289 289 289 289 289 290 291 292 292 293 293 291 288 287 287 287 287 287 286 286
312 307 309 311 308 309 305 308 306 304 305 310 309 309 309 306 305 301 298 296 295 293 291 290 289 288 288 288 288 288 287 287 287 288 287 287 286 286 286 285 285 285 286 286
310 310 308 307 308 307 308 311 315 311 310 313 307 307 308 307 304 301 300 297 294 293 291 289 289 287 287 288 287 287 287 286 286 286 286 285 285 285 285 285 285 285 285 285
314 316 309 307 310 310 309 311 314 310 311 311 308 314 313 303 300 300 299 296 294 292 291 290 289 287 287 287 287 287 286 285 286 286 286 286 286 286 285 285 285 285 285 284
314 317 306 307 307 309 309 311 308 309 301 309 310 308 305 301 300 298 297 295 294 292 291 290 290 288 286 286 286 286 286 286 286 286 286 286 286 286 286 286 286 285 284 284
313 314 309 307 307 307 310 308 314 309 308 306 307 309 307 305 302 299 298 296 294 293 292 289 289 289 287 286 286 286 286 286 286 286 287 286 286 286 286 286 285 284 283 283
309 312 311 310 310 310 311 312 309 309 305 304 302 305 303 305 302 300 299 297 295 294 292 289 289 289 288 287 286 286 286 286 286 287 287 287 286 286 286 286 285 284 283 282
310 310 310 312 307 305 308 310 311 312 310 306 307 310 303 303 301 300 299 297 294 293 292 290 290 289 288 287 286 286 286 286 287 287 287 287 286 286 286 286 285 284 282 281
311 310 305 308 308 307 309 307 309 306 303 305 307 308 302 301 300 299 298 296 294 292 290 290 288 287 287 287 286 286 286 287 287 287 287 287 287 286 286 285 285 283 281 280
310 309 308 314 310 308 310 309 306 307 305 307 310 309 306 304 302 299 298 297 294 293 290 289 288 287 287 287 287 287 287 287 287 287 286 286 286 286 285 285 284 282 280 279
310 313 306 305 303 304 304 308 307 307 310 310 310 308 304 304 302 299 297 296 295 294 289 287 288 287 288 288 287 287 287 287 287 287 286 286 285 285 284 282 281 279 278 278
302 306 301 299 300 300 304 304 304 306 304 304 303 304 301 299 298 296 294 293 292 292 290 287 287 287 288 288 288 288 288 287 287 286 285 285 283 282 281 279 278 277 277 276
303 300 301 306 294 298 306 300 303 303 301 303 305 305 290 293 294 293 292 290 291 292 291 287 286 287 287 288 288 288 288 287 286 285 284 283 281 280 279 278 277 277 276 275
299 298 300 296 294 306 300 290 293 300 299 297 292 290 291 291 291 291 289 289 289 289 289 287 287 287 288 288 288 288 287 285 284 284 283 281 279 279 278 278 277 276 275 274
297 298 294 301 297 298 298 290 290 291 292 291 292 291 290 289 288 288 286 286 287 286 287 288 289 289 288 288 287 286 285 284 283 282 280 279 278 277 277 276 275 274 272 271
296 297 306 291 301 301 293 289 288 290 291 287 289 288 288 287 286 286 287 285 285 287 287 288 289 288 288 288 287 285 284 283 281 279 278 277 276 275 275 273 272 271 270 269
296 296 303 295 301 296 290 288 288 291 291 281 286 287 286 287 286 287 287 286 286 287 288 288 288 288 289 288 286 284 283 281 279 277 276 275 274 274 273 271 271 270 269 268
293 297 296 296 297 298 287 288 291 291 288 287 286 286 287 287 287 286 285 285 285 286 287 288 288 288 288 286 284 282 280 278 276 275 274 274 273 272 272 270 270 269 268 267
290 290 290 294 294 289 288 290 290 289 288 287 287 286 286 286 286 286 285 284 285 286 287 287 287 287 285 283 282 280 278 276 275 274 273 272 272 271 270 269 269 268 267 265
288 286 288 289 288 288 288 288 288 288 288 288 287 287 286 286 286 286 285 284 284 286 286 287 285 283 282 281 280 278 276 275 274 273 272 271 270 270 269 268 268 266 266 264
289 287 286 287 289 288 287 287 288 287 287 287 286 286 286 285 285 285 285 283 284 286 286 284 284 282 280 279 276 275 274 273 272 271 269 269 268 267 267 267 266 266 265 265
288 288 289 288 289 289 289 288 287 287 287 286 285 285 284 284 284 284 283 285 285 284 284 281 280 279 277 276 275 274 273 271 270 269 268 267 267 266 265 265 265 267 265 267

GFSCGP_925_thetae_045.txt.gz
Theta_e
307 308 311 309 307 308 307 309 311 309 308 311 310 309 305 301 301 300 298 297 296 295 293 293 294 296 298 303 305 307 310 310 313 314 313 310 306 306 307 306 307 308 309 310
307 308 308 306 306 308 307 309 309 308 308 308 309 309 303 302 301 300 298 296 295 294 293 291 292 293 295 297 300 304 305 307 308 310 306 304 301 298 298 298 300 301 301 301
309 311 306 307 306 307 307 308 308 311 309 306 306 308 305 301 300 299 297 296 295 294 293 291 290 290 292 293 295 298 301 303 303 303 302 301 299 296 295 293 293 293 294 295
308 308 310 308 309 308 310 307 308 310 312 315 306 313 308 303 301 299 298 296 295 293 291 290 289 289 290 290 293 294 296 298 299 299 299 297 291 287 286 287 287 288 288 288
315 310 310 311 311 309 312 308 309 308 308 309 309 311 308 302 303 301 298 296 294 293 291 289 288 288 288 289 290 291 292 293 294 295 295 293 288 286 286 286 286 286 286 286
312 307 308 310 308 309 304 307 305 303 306 312 310 310 310 306 305 302 298 296 295 293 291 289 288 288 287 287 288 288 289 289 289 289 288 288 286 286 286 286 286 286 286 285
310 309 307 306 307 306 308 311 315 313 312 316 306 308 309 305 303 302 300 297 295 293 290 289 287 287 287 287 287 287 287 286 286 286 286 287 286 286 286 286 286 286 285 285
315 317 308 306 308 309 308 311 316 316 312 311 308 313 312 304 300 299 299 297 294 292 290 289 287 287 287 287 286 286 286 285 286 286 286 286 286 286 286 286 285 285 284 283
313 315 306 306 306 308 309 311 309 309 301 311 310 308 306 302 300 298 297 296 295 293 291 290 288 287 286 286 286 286 286 285 285 286 286 286 286 286 286 285 285 284 283 283
312 314 309 306 307 308 308 307 313 309 312 311 308 308 309 306 303 298 297 297 295 293 291 290 289 287 286 286 286 286 286 286 286 286 287 286 286 286 285 285 285 284 283 282
310 312 312 307 309 311 311 312 309 309 307 308 306 306 302 305 302 300 299 298 296 294 292 290 289 289 287 286 286 286 286 286 286 286 286 286 286 286 286 286 285 284 282 281
309 310 310 310 307 305 309 310 309 312 310 305 307 309 302 302 301 300 299 298 296 294 293 291 289 289 288 286 286 286 285 286 286 286 286 286 286 286 286 286 285 284 282 281
310 311 309 309 309 306 309 308 308 306 305 306 309 307 302 301 300 299 298 297 295 294 292 291 289 288 287 287 286 286 286 286 286 286 286 286 286 286 286 286 285 284 282 280
311 310 314 320 313 309 310 308 307 310 306 308 310 307 305 304 302 299 298 297 294 293 292 291 289 287 288 287 287 286 286 286 286 286 286 286 286 286 285 284 284 283 281 280
311 317 307 304 304 305 305 309 307 310 311 312 310 309 305 305 304 301 298 295 294 293 291 289 290 288 288 287 287 286 286 286 286 286 286 286 286 285 284 284 283 282 280 279
305 312 307 305 301 301 305 304 307 307 307 308 305 307 303 302 297 297 297 295 295 293 292 290 288 289 288 288 287 287 286 286 286 286 286 285 285 284 284 283 281 280 279 278
310 305 311 313 298 301 310 304 304 304 302 306 307 307 296 297 297 297 296 293 292 291 291 290 288 288 289 289 290 288 288 287 286 286 286 285 284 284 282 280 278 277 277 276
305 308 309 298 298 310 300 291 298 304 303 298 293 290 295 295 293 292 291 291 290 290 290 290 290 289 289 289 290 289 288 287 287 286 285 284 283 281 279 277 276 276 275 274
296 303 299 304 303 302 296 290 293 299 298 296 298 296 291 289 288 290 288 287 289 288 289 290 291 291 290 289 288 288 287 287 286 285 284 282 281 279 277 276 275 275 275 275
297 298 306 296 306 308 296 289 288 291 294 288 295 292 289 287 289 289 286 286 286 288 288 289 289 289 288 288 288 287 287 285 285 284 282 280 278 277 276 275 274 274 274 273
299 299 306 301 304 301 292 288 289 295 296 285 288 288 287 288 290 287 285 285 287 287 287 288 288 288 289 289 288 287 286 285 285 282 280 278 277 276 274 274 274 274 273 272
298 302 302 299 301 304 289 288 294 293 288 288 287 288 288 288 287 286 286 286 286 286 287 287 287 288 289 288 287 286 284 285 282 280 278 276 275 274 273 274 273 272 271 270
297 299 300 300 301 290 289 291 290 290 289 287 287 287 287 287 286 285 286 285 285 286 287 287 287 287 287 287 286 285 284 281 279 277 276 275 274 273 273 272 271 271 270 269
288 287 291 292 290 289 289 289 289 289 289 288 287 286 285 286 285 286 283 284 284 286 286 286 285 286 286 286 284 283 281 279 277 276 274 273 272 272 272 270 270 269 269 268
291 289 289 289 288 289 289 288 289 288 288 287 287 286 285 284 284 284 284 283 284 286 287 286 286 286 286 284 282 280 278 277 275 274 272 272 271 271 270 269 269 268 268 267
287 288 289 290 289 290 290 290 288 288 287 286 286 285 284 284 285 284 283 285 285 285 285 284 285 284 283 281 279 277 276 275 274 272 271 272 271 270 268 267 267 268 266 267

GFSCGP_925_thetae_048.txt.gz
Theta_e
312 316 317 318 317 316 316 315 317 314 311 314 316 316 315 307 307 306 304 303 302 300 297 297 296 297 299 301 306 308 310 308 309 309 307 304 301 297 296 298 300 302 303 305
312 316 317 313 313 313 313 316 317 313 311 312 315 315 314 307 307 306 304 303 302 300 299 297 296 296 297 298 299 301 302 303 303 303 302 299 296 293 292 293 295 297 298 298
316 316 312 311 311 312 313 315 316 316 313 311 312 317 313 306 304 303 302 302 301 301 299 297 296 295 295 294 295 298 301 301 301 301 299 296 294 293 292 290 290 290 291 291
313 311 310 311 312 312 315 311 312 312 314 320 310 323 315 309 306 303 302 301 301 299 297 295 294 293 293 292 292 294 296 299 299 298 296 296 294 291 289 288 288 287 287 287
316 312 313 314 314 311 317 311 312 313 315 315 314 317 319 307 309 306 303 302 301 299 297 295 293 291 290 291 291 291 294 295 295 294 293 291 290 288 288 288 287 286 286 286
315 309 312 314 310 311 309 311 310 310 313 319 318 317 319 312 311 308 304 302 300 298 295 293 291 290 289 289 289 289 289 289 290 291 290 290 289 288 288 288 288 287 286 285
316 313 309 308 312 308 311 315 321 321 320 321 310 314 318 311 307 307 304 302 300 297 295 293 291 290 289 288 288 288 288 287 288 288 288 288 288 288 288 288 287 287 286 285
323 323 312 310 317 315 312 318 324 327 322 319 310 316 315 308 305 304 305 302 300 297 295 293 291 290 289 288 288 287 287 287 287 287 287 287 287 287 286 286 286 285 284 283
321 322 309 308 308 313 312 314 314 314 309 319 317 313 311 306 305 303 303 301 300 298 295 293 291 290 289 288 287 287 287 286 286 286 287 287 286 286 285 285 284 284 283 282
316 323 309 308 309 310 311 312 316 316 324 325 316 314 316 309 308 303 302 301 300 298 296 294 291 289 288 288 287 287 287 286 286 286 286 286 286 286 285 285 284 283 283 282
313 316 314 309 311 314 312 313 313 316 317 322 320 314 309 311 310 305 304 302 301 298 297 295 293 290 288 287 287 287 286 286 286 286 286 286 286 285 285 285 284 283 282 281
315 316 318 313 309 306 313 314 314 320 315 312 313 317 306 307 307 307 305 303 302 299 297 296 294 291 289 287 287 287 286 286 287 286 286 286 286 286 285 285 285 284 282 281
314 318 324 318 311 308 311 312 313 313 315 319 321 320 305 305 305 305 305 303 301 300 298 297 295 293 291 288 287 286 286 286 286 286 286 285 285 285 285 284 284 284 283 282
314 318 322 326 320 315 314 313 312 314 320 319 317 315 308 308 307 305 304 303 301 300 299 298 295 293 292 290 288 287 286 286 286 286 286 285 285 285 284 284 284 283 282 280
314 319 318 319 310 313 315 314 313 314 315 319 318 313 310 309 308 306 305 304 302 301 299 298 298 295 293 291 289 287 287 286 286 285 285 285 285 285 284 284 283 282 281 280
310 319 317 317 309 308 311 314 313 313 314 314 314 313 310 308 306 306 304 302 302 301 300 298 297 296 294 291 290 287 286 286 285 285 285 285 285 285 284 283 282 281 280 279
312 316 315 320 313 307 312 312 312 312 312 314 315 314 306 305 306 306 305 302 302 301 299 297 295 294 293 291 290 288 286 285 285 286 286 285 285 284 283 282 281 280 279 277
312 314 314 308 306 315 311 298 308 310 310 308 305 306 307 306 303 302 302 302 300 298 296 295 294 293 291 291 289 288 287 286 286 285 285 285 284 284 282 281 280 279 277 276
300 308 303 308 309 312 299 295 304 309 311 306 307 302 298 293 295 294 294 296 297 294 294 294 293 291 290 290 290 289 288 287 286 286 286 285 284 283 281 280 278 277 276 275
299 302 312 303 314 317 307 294 292 298 305 301 304 299 294 293 302 301 292 292 292 291 290 290 290 291 291 291 289 289 288 287 286 287 286 285 284 282 280 278 277 276 275 275
303 303 309 307 311 308 300 292 291 305 310 294 300 297 293 297 299 294 291 289 290 290 289 289 289 290 292 290 288 287 287 287 288 286 285 283 282 280 278 277 276 275 274 273
306 307 307 303 309 311 292 290 299 298 291 292 293 292 293 292 289 290 290 289 288 288 287 288 288 288 289 288 287 287 287 288 286 284 283 281 279 278 277 275 274 274 272 271
304 303 306 306 307 293 292 293 292 292 294 291 292 291 292 290 289 289 289 288 287 287 287 287 287 288 287 287 287 286 287 286 284 282 281 279 277 276 274 273 273 272 271 269
291 289 296 300 294 292 292 290 291 290 292 291 291 290 289 290 289 288 288 287 287 287 287 287 286 285 285 286 286 286 286 284 283 281 278 276 275 274 273 272 272 271 269 269
293 291 292 291 289 290 290 291 291 291 289 288 288 288 289 288 288 288 287 287 287 287 287 286 285 285 286 286 285 285 284 282 281 278 276 275 274 273 272 272 271 270 269 269
290 291 292 296 292 293 293 292 290 290 289 289 289 287 286 287 288 286 287 287 286 286 286 285 285 285 286 285 284 283 282 280 279 276 274 273 272 271 270 269 269 269 268 269